Lapse_Rate
5.0 4.6 4.2 3.9 3.7 3.4 2.9 2.7 2.9 3.0 3.1 3.4 3.9 4.1 4.7 4.9 4.9 5.2 5.0 5.1 5.1 5.1 5.1 4.9 4.6 4.0 4.0
4.7 4.3 3.7 3.3 3.0 2.8 2.5 3.0 3.3 3.9 4.7 4.8 5.0 5.0 4.9 4.9 4.9 4.7 4.9 5.0 5.0 4.8 4.8 4.8 4.7 4.4 4.1
4.4 3.6 3.0 2.8 2.8 2.5 2.9 3.7 4.5 4.8 5.2 5.2 5.0 5.2 5.2 5.0 4.8 4.8 5.0 4.9 4.9 4.8 4.5 4.3 4.5 4.7 4.6
3.6 3.1 2.8 2.9 2.6 2.7 3.9 4.5 5.1 5.5 5.1 5.2 5.1 5.0 5.1 4.9 4.8 4.9 4.9 4.8 4.6 4.4 4.4 4.4 4.4 4.3 4.3
2.8 2.9 3.3 3.1 3.2 4.0 4.4 5.0 5.6 5.4 4.9 5.5 4.9 5.2 5.1 4.7 4.6 4.9 5.0 5.1 4.9 4.8 4.9 5.6 5.8 5.9 5.5
3.0 3.1 3.4 3.9 4.1 4.4 5.1 5.0 5.1 6.2 4.9 5.1 4.7 5.3 5.1 4.7 4.7 4.8 5.2 5.0 5.2 5.5 5.8 6.0 6.3 6.2 6.1
3.1 3.8 4.1 4.3 4.4 4.6 4.8 4.9 5.5 5.3 4.2 4.0 4.7 5.4 5.0 4.9 4.4 4.7 4.9 5.2 5.7 5.6 5.6 5.8 5.9 6.0 6.2
4.0 4.3 4.4 4.5 4.2 3.9 4.3 4.2 5.3 5.4 4.1 3.5 4.7 5.3 5.3 5.3 4.5 4.6 5.0 5.3 5.3 5.5 5.7 5.8 5.9 5.9 5.8
4.6 4.6 4.4 4.5 4.3 4.0 4.3 4.3 4.8 6.0 5.1 3.8 5.0 5.0 5.7 5.9 4.8 4.7 5.0 5.3 5.4 5.6 5.6 5.4 5.6 5.5 5.7
5.0 5.0 5.0 5.0 4.9 4.8 4.7 4.5 4.5 5.5 5.1 4.5 5.4 4.5 5.7 6.5 5.7 5.2 5.2 5.5 5.6 5.7 5.7 5.7 5.6 5.5 5.8
5.1 5.2 5.2 5.1 5.0 4.9 4.8 4.6 4.6 5.4 5.0 4.5 5.4 5.2 4.5 5.5 6.6 5.6 5.4 6.0 6.1 6.1 6.0 5.9 5.9 6.0 5.9
5.2 5.3 5.2 5.2 5.1 5.0 5.2 5.2 5.2 5.3 5.6 5.0 5.2 5.0 5.1 5.5 5.7 6.4 6.0 6.0 5.9 6.0 5.7 6.0 6.3 6.4 6.6
5.0 5.1 5.1 5.2 5.3 5.4 5.6 5.6 5.8 5.7 5.3 5.2 5.1 5.0 4.9 5.0 5.2 5.8 5.4 6.1 5.8 5.8 5.9 6.4 6.5 6.9 6.9
4.8 4.9 5.2 5.4 5.6 5.6 5.8 5.8 6.0 6.2 5.7 5.2 5.2 4.9 5.0 4.9 4.7 5.1 5.1 5.1 5.5 5.6 5.9 6.6 6.7 6.9 6.9
4.7 5.0 5.3 5.6 5.9 5.7 5.7 5.8 5.8 5.8 6.1 5.9 5.6 5.3 5.1 4.6 4.9 5.1 5.0 5.4 5.4 5.7 5.9 6.5 7.1 7.1 6.8
4.9 5.1 5.6 5.8 5.9 6.0 5.7 5.7 5.8 5.7 5.6 5.6 5.8 6.0 5.7 5.4 4.2 4.7 5.3 5.6 5.8 5.8 6.1 6.7 7.4 6.9 6.5
5.0 5.3 5.6 6.0 5.8 5.8 5.8 5.7 5.8 5.7 5.7 5.5 5.5 5.2 5.6 6.1 5.4 4.4 5.0 5.5 5.9 6.3 6.4 6.8 6.9 6.7 6.5
Wind_Speed
9 10 12 14 14 19 19 20 23 30 34 34 33 33 34 34 35 35 35 35 36 36 38 37 38 38 38
11 10 12 13 15 13 12 19 22 23 30 32 34 34 35 35 35 35 35 35 35 35 36 37 36 37 37
12 10 10 11 13 11 14 12 15 24 29 32 34 36 35 34 35 35 35 35 35 35 35 34 35 35 35
12 12 11 11 10 12 11 9 11 12 23 28 32 33 33 33 35 35 34 32 32 32 32 31 31 32 33
12 12 11 11 12 10 11 11 14 12 10 14 10 12 15 25 27 31 29 30 30 30 30 32 33 33 34
12 12 16 12 11 10 12 13 12 10 9 15 11 13 12 12 26 30 30 30 30 31 30 31 32 33 33
17 14 14 13 13 14 15 12 14 13 12 14 12 14 12 13 28 29 30 32 30 29 29 29 30 32 32
13 13 13 14 15 12 14 15 15 13 10 12 12 15 13 11 29 32 29 27 25 26 29 31 31 32 33
23 28 30 28 21 11 10 11 13 14 10 11 10 12 14 15 13 22 24 26 30 28 30 29 30 32 25
14 16 17 14 21 12 9 10 10 14 8 7 11 9 7 8 8 11 11 24 28 30 29 29 31 15 13
11 9 10 10 9 9 11 10 10 13 16 11 9 11 8 11 11 11 12 13 11 16 27 29 30 25 13
9 10 10 10 10 10 14 13 12 16 17 14 10 11 12 14 15 12 13 13 12 13 13 22 29 31 31
10 10 9 10 13 12 13 13 14 15 13 16 12 13 11 13 14 15 15 15 14 13 12 12 13 13 14
9 10 10 10 11 10 10 10 11 12 12 12 13 13 12 12 13 15 13 12 13 13 12 13 14 13 12
9 10 10 10 10 10 10 10 10 11 13 11 12 12 13 16 14 14 13 13 13 14 13 14 14 12 11
10 10 10 10 11 11 10 9 10 11 11 11 12 11 11 11 17 11 11 12 13 14 14 11 13 13 11
9 10 10 10 14 11 10 10 11 11 12 11 11 10 13 14 13 9 9 12 13 12 11 11 12 14 12
Wind_Direction
293 299 305 304 295 293 305 299 289 294 299 297 296 295 292 291 289 290 288 286 284 284 283 283 280 277 274
296 304 292 295 294 301 288 287 293 291 299 300 297 297 296 293 292 288 285 284 285 286 284 282 280 275 275
301 299 302 300 299 286 291 285 298 301 299 299 300 296 293 294 292 289 287 288 288 285 283 280 278 276 275
303 299 295 299 290 301 301 300 298 297 297 292 296 292 290 294 293 291 289 287 285 284 283 283 279 278 276
292 296 299 308 303 307 300 309 298 290 299 291 289 295 288 288 287 288 286 285 284 283 280 277 276 273 272
290 300 300 300 307 311 303 299 298 297 299 298 295 288 287 286 286 291 293 290 285 282 281 280 277 275 271
292 293 299 304 305 295 292 297 295 297 296 288 294 289 290 288 290 290 294 291 286 284 283 281 281 280 275
291 296 293 294 286 283 294 295 290 287 286 287 294 289 291 291 294 293 291 286 285 285 285 284 282 275 271
308 299 295 297 303 300 292 295 292 291 298 289 288 296 298 291 282 285 291 295 297 292 289 287 285 281 279
299 298 299 298 299 296 291 285 291 295 294 296 298 305 301 284 287 298 287 292 294 292 289 289 287 282 273
297 299 301 300 297 295 293 286 288 284 288 301 297 294 276 295 291 293 292 292 292 292 289 288 286 284 278
299 299 299 298 297 297 293 283 271 269 284 281 278 281 285 288 291 298 294 292 290 290 288 282 282 283 280
297 295 295 296 296 291 289 285 282 278 277 276 270 276 274 279 285 288 291 299 293 284 284 286 289 288 285
297 294 295 297 295 293 294 296 292 291 289 279 275 278 280 275 277 282 288 288 287 285 290 289 289 285 281
296 298 297 296 295 298 293 294 292 298 301 301 291 278 271 271 278 280 285 286 290 296 296 295 295 293 292
298 294 296 298 298 299 299 294 294 297 296 298 302 299 294 274 258 278 288 292 296 298 296 295 298 306 307
296 296 296 296 305 299 299 298 300 300 295 297 301 301 306 309 311 280 302 295 296 296 300 299 298 306 308